Time,TemperatureF,DewpointF,PressureIn,WindDirection,WindDirectionDegrees,WindSpeedMPH,WindSpeedGustMPH,Humidity,HourlyPrecipIn,Conditions,Clouds,dailyrainin,SoftwareType,DateUTC
2013-02-03 00:02:00,27.9,22.8,30.09,North,360,0.0,0.0,81,0.00,,OVC065,0.00,VWS V14.01,2013-02-03 06:02:00,
2013-02-03 00:07:00,27.8,22.7,30.08,NE,36,0.0,2.0,81,0.00,,OVC065,0.00,VWS V14.01,2013-02-03 06:07:00,
2013-02-03 00:12:00,27.8,23.0,30.08,NE,36,0.0,1.0,82,0.00,,OVC065,0.00,VWS V14.01,2013-02-03 06:12:00,
2013-02-03 00:17:00,27.7,22.9,30.08,ENE,63,0.0,3.0,82,0.00,,OVC065,0.00,VWS V14.01,2013-02-03 06:17:00,
2013-02-03 00:22:00,27.6,22.8,30.07,East,86,0.0,0.0,82,0.00,,OVC065,0.00,VWS V14.01,2013-02-03 06:22:00,
2013-02-03 00:27:00,27.5,22.7,30.07,ESE,113,4.0,5.0,82,0.00,,OVC065,0.00,VWS V14.01,2013-02-03 06:27:00,
2013-02-03 00:32:00,27.4,22.9,30.07,ESE,114,0.0,0.0,83,0.00,,,0.00,VWS V14.01,2013-02-03 06:32:00,
2013-02-03 00:37:00,27.4,22.9,30.06,ESE,114,0.0,4.0,83,0.00,,,0.00,VWS V14.01,2013-02-03 06:37:00,
2013-02-03 00:42:00,27.4,22.9,30.06,ESE,114,0.0,0.0,83,0.00,,,0.00,VWS V14.01,2013-02-03 06:42:00,
2013-02-03 00:47:00,27.4,22.9,30.05,ESE,114,0.0,4.0,83,0.00,,,0.00,VWS V14.01,2013-02-03 06:47:00,
2013-02-03 00:52:00,27.4,22.9,30.05,ESE,114,0.0,1.0,83,0.00,,,0.00,VWS V14.01,2013-02-03 06:52:00,
2013-02-03 00:57:00,27.2,22.7,30.05,SE,124,2.0,6.0,83,0.01,,,0.01,VWS V14.01,2013-02-03 06:57:00,
2013-02-03 01:02:00,27.0,22.5,30.05,SE,124,0.0,4.0,83,0.01,,,0.01,VWS V14.01,2013-02-03 07:02:00,
2013-02-03 01:07:00,27.0,22.8,30.06,SE,124,0.0,4.0,84,0.01,,,0.01,VWS V14.01,2013-02-03 07:07:00,
2013-02-03 01:12:00,27.0,22.8,30.06,SE,124,0.0,4.0,84,0.01,,,0.01,VWS V14.01,2013-02-03 07:12:00,
2013-02-03 01:17:00,27.0,22.8,30.05,SE,124,0.0,4.0,84,0.02,,,0.02,VWS V14.01,2013-02-03 07:17:00,
2013-02-03 01:22:00,27.0,22.8,30.05,SE,125,0.0,4.0,84,0.02,,,0.02,VWS V14.01,2013-02-03 07:22:00,
2013-02-03 01:27:00,27.0,22.8,30.05,SSE,147,0.0,6.0,84,0.02,,,0.02,VWS V14.01,2013-02-03 07:27:00,
2013-02-03 01:32:00,26.9,22.7,30.05,SSE,147,0.0,0.0,84,0.02,,,0.02,VWS V14.01,2013-02-03 07:32:00,
2013-02-03 01:37:00,26.9,22.7,30.05,SSE,148,0.0,6.0,84,0.03,,,0.03,VWS V14.01,2013-02-03 07:37:00,
2013-02-03 01:42:00,26.9,22.7,30.05,SSE,148,0.0,1.0,84,0.03,,,0.03,VWS V14.01,2013-02-03 07:42:00,
2013-02-03 01:47:00,26.9,22.7,30.05,SSE,148,0.0,1.0,84,0.04,,,0.04,VWS V14.01,2013-02-03 07:47:00,
2013-02-03 01:52:00,26.9,22.7,30.05,SSE,148,0.0,0.0,84,0.04,,,0.04,VWS V14.01,2013-02-03 07:52:00,
2013-02-03 01:57:00,26.8,22.6,30.05,SSE,148,0.0,2.0,84,0.04,,,0.04,VWS V14.01,2013-02-03 07:57:00,
2013-02-03 02:02:00,26.9,22.7,30.04,SSE,148,0.0,0.0,84,0.04,,,0.05,VWS V14.01,2013-02-03 08:02:00,
2013-02-03 02:07:00,26.9,22.7,30.04,SSE,148,0.0,2.0,84,0.04,,,0.05,VWS V14.01,2013-02-03 08:07:00,
2013-02-03 02:12:00,26.8,22.6,30.04,SSE,148,0.0,0.0,84,0.05,,,0.06,VWS V14.01,2013-02-03 08:12:00,
2013-02-03 02:17:00,26.9,22.7,30.04,SSE,148,0.0,0.0,84,0.05,,,0.06,VWS V14.01,2013-02-03 08:17:00,
2013-02-03 02:22:00,26.9,22.7,30.04,SSE,148,0.0,0.0,84,0.04,,,0.06,VWS V14.01,2013-02-03 08:22:00,
2013-02-03 02:27:00,27.0,22.8,30.04,SSE,148,0.0,0.0,84,0.05,,,0.07,VWS V14.01,2013-02-03 08:27:00,
2013-02-03 02:32:00,27.0,22.8,30.04,SSE,148,0.0,0.0,84,0.05,,,0.07,VWS V14.01,2013-02-03 08:32:00,
2013-02-03 02:37:00,27.0,22.8,30.04,SSE,148,0.0,0.0,84,0.05,,,0.07,VWS V14.01,2013-02-03 08:37:00,
2013-02-03 02:42:00,27.1,22.9,30.04,SSE,148,0.0,0.0,84,0.04,,OVC037,0.07,VWS V14.01,2013-02-03 08:42:00,
2013-02-03 02:47:00,27.1,22.9,30.03,SSE,148,0.0,0.0,84,0.04,,OVC037,0.07,VWS V14.01,2013-02-03 08:47:00,
2013-02-03 02:52:00,27.1,22.9,30.03,SSE,148,0.0,0.0,84,0.03,,,0.07,VWS V14.01,2013-02-03 08:52:00,
2013-02-03 02:57:00,27.2,23.0,30.03,SSE,148,0.0,1.0,84,0.03,,,0.07,VWS V14.01,2013-02-03 08:57:00,
2013-02-03 03:02:00,27.2,23.0,30.04,SSE,148,1.0,1.0,84,0.02,,,0.07,VWS V14.01,2013-02-03 09:02:00,
2013-02-03 03:07:00,27.2,23.0,30.04,SSE,148,0.0,5.0,84,0.02,,,0.07,VWS V14.01,2013-02-03 09:07:00,
2013-02-03 03:12:00,27.3,23.1,30.03,SSE,148,0.0,0.0,84,0.02,,,0.07,VWS V14.01,2013-02-03 09:12:00,
2013-02-03 03:17:00,27.3,23.1,30.03,SSE,148,0.0,0.0,84,0.02,,,0.07,VWS V14.01,2013-02-03 09:17:00,
2013-02-03 03:22:00,27.3,23.1,30.03,SSE,148,0.0,0.0,84,0.01,,,0.07,VWS V14.01,2013-02-03 09:22:00,
2013-02-03 03:27:00,27.4,23.2,30.02,SSE,148,0.0,0.0,84,0.01,,,0.07,VWS V14.01,2013-02-03 09:27:00,
2013-02-03 03:33:00,27.4,22.9,30.02,SSE,148,0.0,0.0,83,0.00,,,0.07,VWS V14.01,2013-02-03 09:33:00,
2013-02-03 03:38:00,27.5,23.0,30.02,SSE,148,0.0,0.0,83,0.00,,,0.07,VWS V14.01,2013-02-03 09:38:00,
2013-02-03 03:43:00,27.5,23.0,30.02,SSE,148,0.0,0.0,83,0.00,,,0.07,VWS V14.01,2013-02-03 09:43:00,
2013-02-03 03:48:00,27.6,23.4,30.02,SSE,148,0.0,0.0,84,0.00,,,0.07,VWS V14.01,2013-02-03 09:48:00,
2013-02-03 03:53:00,27.6,23.4,30.02,SSE,148,0.0,0.0,84,0.00,,,0.07,VWS V14.01,2013-02-03 09:53:00,
2013-02-03 03:58:00,27.6,23.4,30.02,SSE,148,0.0,0.0,84,0.00,,,0.07,VWS V14.01,2013-02-03 09:58:00,
2013-02-03 04:03:00,27.7,23.5,30.02,SSE,148,0.0,0.0,84,0.00,,,0.07,VWS V14.01,2013-02-03 10:03:00,
2013-02-03 04:08:00,27.8,23.6,30.02,SSE,148,0.0,0.0,84,0.00,,,0.07,VWS V14.01,2013-02-03 10:08:00,
2013-02-03 04:13:00,27.8,23.3,30.02,SSE,148,0.0,0.0,83,0.00,,,0.07,VWS V14.01,2013-02-03 10:13:00,
2013-02-03 04:18:00,27.9,23.4,30.01,SSE,148,0.0,0.0,83,0.00,,,0.07,VWS V14.01,2013-02-03 10:18:00,
2013-02-03 04:23:00,27.9,23.4,30.01,SSE,148,0.0,0.0,83,0.00,,,0.07,VWS V14.01,2013-02-03 10:23:00,
2013-02-03 04:28:00,28.0,23.5,30.01,SSE,148,0.0,1.0,83,0.00,,,0.07,VWS V14.01,2013-02-03 10:28:00,
2013-02-03 04:33:00,28.1,23.9,30.01,SSE,148,0.0,1.0,84,0.00,,,0.07,VWS V14.01,2013-02-03 10:33:00,
2013-02-03 04:38:00,28.2,24.0,30.01,SSE,148,0.0,1.0,84,0.00,,,0.07,VWS V14.01,2013-02-03 10:38:00,
2013-02-03 04:43:00,28.3,24.1,30.01,SSE,148,0.0,1.0,84,0.00,,,0.07,VWS V14.01,2013-02-03 10:43:00,
2013-02-03 04:48:00,28.4,24.2,30.01,SSE,148,0.0,2.0,84,0.00,,,0.07,VWS V14.01,2013-02-03 10:48:00,
2013-02-03 04:53:00,28.5,24.3,30.01,SSE,148,0.0,2.0,84,0.01,,,0.08,VWS V14.01,2013-02-03 10:53:00,
2013-02-03 04:58:00,28.5,24.3,30.01,SSE,153,0.0,5.0,84,0.01,,,0.08,VWS V14.01,2013-02-03 10:58:00,
2013-02-03 05:03:00,28.7,24.2,30.02,South,177,0.0,5.0,83,0.01,,,0.08,VWS V14.01,2013-02-03 11:03:00,
2013-02-03 05:08:00,28.8,24.6,30.01,SSW,196,0.0,5.0,84,0.01,,,0.08,VWS V14.01,2013-02-03 11:08:00,
2013-02-03 05:13:00,29.0,24.8,30.01,WSW,254,0.0,6.0,84,0.01,,,0.08,VWS V14.01,2013-02-03 11:13:00,
2013-02-03 05:18:00,29.1,24.9,30.02,WSW,252,0.0,6.0,84,0.01,,,0.08,VWS V14.01,2013-02-03 11:18:00,
2013-02-03 05:23:00,29.3,25.1,30.02,WSW,244,3.0,5.0,84,0.01,,,0.08,VWS V14.01,2013-02-03 11:23:00,
2013-02-03 05:28:00,29.5,25.3,30.02,WSW,253,2.0,5.0,84,0.01,,,0.08,VWS V14.01,2013-02-03 11:28:00,
2013-02-03 05:33:00,29.7,25.5,30.02,West,266,0.0,2.0,84,0.01,,,0.08,VWS V14.01,2013-02-03 11:33:00,
2013-02-03 05:38:00,29.7,25.5,30.02,West,266,0.0,3.0,84,0.01,,,0.08,VWS V14.01,2013-02-03 11:38:00,
2013-02-03 05:43:00,29.8,25.6,30.03,West,266,0.0,1.0,84,0.01,,,0.08,VWS V14.01,2013-02-03 11:43:00,
2013-02-03 05:48:00,29.9,25.7,30.03,West,266,0.0,4.0,84,0.01,,,0.08,VWS V14.01,2013-02-03 11:48:00,
2013-02-03 05:53:00,30.0,25.8,30.03,West,266,1.0,2.0,84,0.00,,,0.08,VWS V14.01,2013-02-03 11:53:00,
2013-02-03 05:58:00,30.1,25.9,30.03,West,268,0.0,4.0,84,0.00,,,0.08,VWS V14.01,2013-02-03 11:58:00,
2013-02-03 06:03:00,30.1,25.9,30.03,WNW,288,0.0,2.0,84,0.00,,,0.08,VWS V14.01,2013-02-03 12:03:00,
2013-02-03 06:08:00,30.3,26.1,30.03,WNW,290,5.0,5.0,84,0.00,,,0.08,VWS V14.01,2013-02-03 12:08:00,
2013-02-03 06:13:00,30.4,26.1,30.03,NW,308,3.0,6.0,84,0.00,,,0.08,VWS V14.01,2013-02-03 12:13:00,
2013-02-03 06:18:00,30.6,26.4,30.03,NNW,343,2.0,6.0,84,0.00,,,0.08,VWS V14.01,2013-02-03 12:18:00,
2013-02-03 06:23:00,30.7,26.5,30.03,NW,318,3.0,4.0,84,0.00,,,0.08,VWS V14.01,2013-02-03 12:23:00,
2013-02-03 06:28:00,30.8,26.5,30.03,NW,314,1.0,4.0,84,0.00,,,0.08,VWS V14.01,2013-02-03 12:28:00,
2013-02-03 06:33:00,30.8,26.5,30.03,NW,310,4.0,4.0,84,0.00,,,0.08,VWS V14.01,2013-02-03 12:33:00,
2013-02-03 06:38:00,30.8,26.5,30.03,NW,321,0.0,7.0,84,0.00,,,0.08,VWS V14.01,2013-02-03 12:38:00,
2013-02-03 06:43:00,30.8,26.5,30.03,NW,317,2.0,2.0,84,0.00,,,0.08,VWS V14.01,2013-02-03 12:43:00,
2013-02-03 06:48:00,30.7,26.5,30.03,NW,316,0.0,4.0,84,0.00,,,0.08,VWS V14.01,2013-02-03 12:48:00,
2013-02-03 06:53:00,30.6,26.4,30.03,NW,316,2.0,3.0,84,0.00,,OVC044,0.08,VWS V14.01,2013-02-03 12:53:00,
2013-02-03 06:58:00,30.7,26.5,30.04,NW,316,0.0,3.0,84,0.00,,OVC044,0.08,VWS V14.01,2013-02-03 12:58:00,
2013-02-03 07:03:00,30.8,26.5,30.04,NW,314,2.0,3.0,84,0.00,,OVC044,0.08,VWS V14.01,2013-02-03 13:03:00,
2013-02-03 07:08:00,30.8,26.5,30.04,NW,313,3.0,4.0,84,0.00,,OVC044,0.08,VWS V14.01,2013-02-03 13:08:00,
2013-02-03 07:13:00,30.8,26.5,30.04,NW,313,3.0,3.0,84,0.00,,OVC044,0.08,VWS V14.01,2013-02-03 13:13:00,
2013-02-03 07:18:00,30.8,26.5,30.04,NW,312,0.0,3.0,84,0.00,,OVC044,0.08,VWS V14.01,2013-02-03 13:18:00,
2013-02-03 07:23:00,30.8,26.5,30.04,NW,310,0.0,5.0,84,0.00,,OVC044,0.08,VWS V14.01,2013-02-03 13:23:00,
2013-02-03 07:28:00,30.7,26.5,30.04,NW,321,0.0,5.0,84,0.00,,OVC044,0.08,VWS V14.01,2013-02-03 13:28:00,
2013-02-03 07:33:00,30.7,26.5,30.05,NW,321,4.0,5.0,84,0.00,,BKN044,0.08,VWS V14.01,2013-02-03 13:33:00,
2013-02-03 07:38:00,30.7,26.5,30.05,NW,315,2.0,6.0,84,0.00,,BKN044,0.08,VWS V14.01,2013-02-03 13:38:00,
2013-02-03 07:43:00,30.7,26.5,30.05,NW,315,2.0,2.0,84,0.00,,,0.08,VWS V14.01,2013-02-03 13:43:00,
2013-02-03 07:48:00,30.8,26.5,30.05,NW,306,2.0,5.0,84,0.00,,,0.08,VWS V14.01,2013-02-03 13:48:00,
2013-02-03 07:53:00,30.8,26.5,30.05,NW,310,2.0,2.0,84,0.00,,,0.08,VWS V14.01,2013-02-03 13:53:00,
2013-02-03 07:58:00,30.8,26.5,30.05,NW,306,0.0,5.0,84,0.00,,,0.08,VWS V14.01,2013-02-03 13:58:00,
2013-02-03 08:03:00,30.9,26.6,30.06,WNW,287,0.0,3.0,84,0.00,,,0.08,VWS V14.01,2013-02-03 14:03:00,
2013-02-03 08:08:00,30.9,26.6,30.06,NW,317,1.0,5.0,84,0.00,,,0.08,VWS V14.01,2013-02-03 14:08:00,
2013-02-03 08:13:00,31.0,26.7,30.06,WNW,293,0.0,3.0,84,0.00,,,0.08,VWS V14.01,2013-02-03 14:13:00,
2013-02-03 08:18:00,31.0,26.7,30.07,NW,310,2.0,3.0,84,0.00,,,0.08,VWS V14.01,2013-02-03 14:18:00,
2013-02-03 08:23:00,31.1,26.8,30.07,NW,321,2.0,7.0,84,0.00,,,0.08,VWS V14.01,2013-02-03 14:23:00,
2013-02-03 08:28:00,31.2,26.9,30.07,NW,318,3.0,7.0,84,0.00,,,0.08,VWS V14.01,2013-02-03 14:28:00,
2013-02-03 08:33:00,31.2,26.9,30.07,NW,310,3.0,4.0,84,0.00,,,0.08,VWS V14.01,2013-02-03 14:33:00,
2013-02-03 08:38:00,31.4,27.1,30.07,NW,313,5.0,6.0,84,0.00,,,0.08,VWS V14.01,2013-02-03 14:38:00,
2013-02-03 08:43:00,31.4,27.1,30.07,NW,319,4.0,6.0,84,0.00,,,0.08,VWS V14.01,2013-02-03 14:43:00,
2013-02-03 08:48:00,31.5,27.2,30.07,West,259,3.0,6.0,84,0.00,,,0.08,VWS V14.01,2013-02-03 14:48:00,
2013-02-03 08:53:00,31.6,27.3,30.07,WNW,300,1.0,7.0,84,0.00,,OVC038,0.08,VWS V14.01,2013-02-03 14:53:00,
2013-02-03 08:58:00,31.6,27.3,30.07,WNW,298,3.0,7.0,84,0.00,,OVC038,0.08,VWS V14.01,2013-02-03 14:58:00,
2013-02-03 09:03:00,31.7,27.4,30.07,WNW,296,3.0,4.0,84,0.00,,OVC038,0.08,VWS V14.01,2013-02-03 15:03:00,
2013-02-03 09:08:00,31.6,27.3,30.07,WNW,290,4.0,7.0,84,0.00,,OVC038,0.08,VWS V14.01,2013-02-03 15:08:00,
2013-02-03 09:13:00,31.7,27.4,30.08,WNW,297,0.0,4.0,84,0.00,,OVC038,0.08,VWS V14.01,2013-02-03 15:13:00,
2013-02-03 09:18:00,31.7,27.4,30.08,WNW,289,3.0,4.0,84,0.00,,OVC038,0.08,VWS V14.01,2013-02-03 15:18:00,
2013-02-03 09:23:00,31.7,27.4,30.08,NW,317,3.0,4.0,84,0.00,,OVC038,0.08,VWS V14.01,2013-02-03 15:23:00,
2013-02-03 09:28:00,31.7,27.4,30.08,NNE,22,0.0,4.0,84,0.00,,OVC038,0.08,VWS V14.01,2013-02-03 15:28:00,
2013-02-03 09:33:00,31.7,27.4,30.09,West,281,2.0,4.0,84,0.00,,OVC013,0.08,VWS V14.01,2013-02-03 15:33:00,
2013-02-03 09:38:00,31.8,27.5,30.09,WNW,294,1.0,5.0,84,0.00,,OVC013,0.08,VWS V14.01,2013-02-03 15:38:00,
2013-02-03 09:43:00,31.8,27.5,30.09,WNW,284,2.0,8.0,84,0.00,,OVC013,0.08,VWS V14.01,2013-02-03 15:43:00,
2013-02-03 09:48:00,31.9,27.6,30.10,WNW,283,4.0,8.0,84,0.00,,OVC013,0.08,VWS V14.01,2013-02-03 15:48:00,
2013-02-03 09:53:00,31.9,27.6,30.10,NW,311,3.0,4.0,84,0.00,,OVC013,0.08,VWS V14.01,2013-02-03 15:53:00,
2013-02-03 09:58:00,32.0,27.7,30.11,West,279,5.0,8.0,84,0.00,,OVC013,0.08,VWS V14.01,2013-02-03 15:58:00,
2013-02-03 10:03:00,32.0,27.7,30.11,WNW,293,2.0,7.0,84,0.00,,OVC013,0.08,VWS V14.01,2013-02-03 16:03:00,
2013-02-03 10:08:00,32.0,27.7,30.11,NNW,327,4.0,8.0,84,0.00,,OVC013,0.08,VWS V14.01,2013-02-03 16:08:00,
2013-02-03 10:13:00,32.0,27.4,30.11,NW,317,5.0,7.0,83,0.00,,OVC013,0.08,VWS V14.01,2013-02-03 16:13:00,
2013-02-03 10:18:00,32.1,27.8,30.12,NNW,329,3.0,7.0,84,0.00,,OVC013,0.08,VWS V14.01,2013-02-03 16:18:00,
2013-02-03 10:23:00,32.0,27.4,30.12,NW,304,3.0,7.0,83,0.00,,OVC013,0.08,VWS V14.01,2013-02-03 16:23:00,
2013-02-03 10:28:00,31.9,27.3,30.12,NW,304,3.0,12.0,83,0.00,,OVC013,0.08,VWS V14.01,2013-02-03 16:28:00,
2013-02-03 10:33:00,31.8,27.2,30.13,NW,318,2.0,6.0,83,0.00,,OVC015,0.08,VWS V14.01,2013-02-03 16:33:00,
2013-02-03 10:38:00,31.7,27.1,30.14,North,360,2.0,8.0,83,0.00,,OVC015,0.08,VWS V14.01,2013-02-03 16:38:00,
2013-02-03 10:43:00,31.5,26.9,30.14,NW,310,0.0,3.0,83,0.00,,OVC015,0.08,VWS V14.01,2013-02-03 16:43:00,
2013-02-03 10:48:00,31.5,26.9,30.14,NNW,344,2.0,5.0,83,0.00,,OVC015,0.08,VWS V14.01,2013-02-03 16:48:00,
2013-02-03 10:53:00,31.4,26.8,30.14,NW,307,1.0,5.0,83,0.00,,OVC017,0.08,VWS V14.01,2013-02-03 16:53:00,
2013-02-03 10:58:00,31.3,26.8,30.14,NW,325,0.0,6.0,83,0.00,,OVC017,0.08,VWS V14.01,2013-02-03 16:58:00,
2013-02-03 11:04:00,31.4,26.8,30.15,NW,315,3.0,8.0,83,0.00,,OVC017,0.08,VWS V14.01,2013-02-03 17:04:00,
2013-02-03 11:09:00,31.1,26.3,30.15,WNW,287,6.0,10.0,82,0.00,,OVC017,0.08,VWS V14.01,2013-02-03 17:09:00,
2013-02-03 11:14:00,30.8,26.0,30.16,NNW,340,3.0,8.0,82,0.00,,OVC017,0.08,VWS V14.01,2013-02-03 17:14:00,
2013-02-03 11:19:00,30.6,25.5,30.16,NW,323,3.0,8.0,81,0.00,,OVC017,0.08,VWS V14.01,2013-02-03 17:19:00,
2013-02-03 11:24:00,30.5,25.4,30.16,NW,309,12.0,14.0,81,0.00,,OVC017,0.08,VWS V14.01,2013-02-03 17:24:00,
2013-02-03 11:29:00,30.4,24.7,30.16,NW,318,5.0,14.0,79,0.00,,OVC017,0.08,VWS V14.01,2013-02-03 17:29:00,
2013-02-03 11:34:00,30.5,24.8,30.16,NW,311,4.0,6.0,79,0.00,,OVC017,0.08,VWS V14.01,2013-02-03 17:34:00,
2013-02-03 11:39:00,30.9,24.9,30.16,NNW,329,6.0,16.0,78,0.00,,OVC017,0.08,VWS V14.01,2013-02-03 17:39:00,
2013-02-03 11:44:00,31.3,25.2,30.16,NW,320,5.0,6.0,78,0.00,,OVC017,0.08,VWS V14.01,2013-02-03 17:44:00,
2013-02-03 11:49:00,31.6,24.6,30.16,WNW,301,6.0,14.0,75,0.00,,OVC017,0.08,VWS V14.01,2013-02-03 17:49:00,
2013-02-03 11:54:00,30.9,23.6,30.17,NW,325,2.0,9.0,74,0.00,,OVC036,0.08,VWS V14.01,2013-02-03 17:54:00,
2013-02-03 11:59:00,31.0,24.0,30.16,NW,304,6.0,11.0,75,0.00,,OVC036,0.08,VWS V14.01,2013-02-03 17:59:00,
2013-02-03 12:04:00,30.4,22.8,30.17,NW,310,6.0,12.0,73,0.00,,OVC036,0.08,VWS V14.01,2013-02-03 18:04:00,
2013-02-03 12:09:00,30.4,22.5,30.17,WNW,294,5.0,13.0,72,0.00,,OVC036,0.08,VWS V14.01,2013-02-03 18:09:00,
2013-02-03 12:14:00,30.3,21.7,30.17,NW,305,9.0,11.0,70,0.00,,OVC036,0.08,VWS V14.01,2013-02-03 18:14:00,
2013-02-03 12:19:00,30.5,21.6,30.17,NW,320,6.0,12.0,69,0.00,,OVC036,0.08,VWS V14.01,2013-02-03 18:19:00,
2013-02-03 12:24:00,30.8,21.5,30.17,NW,321,2.0,12.0,68,0.00,,OVC036,0.08,VWS V14.01,2013-02-03 18:24:00,
2013-02-03 12:29:00,30.9,23.0,30.17,North,355,6.0,13.0,72,0.00,,OVC036,0.08,VWS V14.01,2013-02-03 18:29:00,
2013-02-03 12:34:00,31.4,22.1,30.17,NW,310,7.0,10.0,68,0.00,,,0.08,VWS V14.01,2013-02-03 18:34:00,
2013-02-03 12:39:00,30.6,20.6,30.17,WNW,300,7.0,13.0,66,0.00,,,0.08,VWS V14.01,2013-02-03 18:39:00,
2013-02-03 12:44:00,30.7,20.7,30.18,NW,305,9.0,12.0,66,0.00,,,0.08,VWS V14.01,2013-02-03 18:44:00,
2013-02-03 12:49:00,30.4,20.8,30.18,West,279,5.0,12.0,67,0.00,,,0.08,VWS V14.01,2013-02-03 18:49:00,
2013-02-03 12:54:00,30.2,20.6,30.18,WNW,300,7.0,10.0,67,0.00,,,0.08,VWS V14.01,2013-02-03 18:54:00,
2013-02-03 12:59:00,30.2,20.2,30.18,NNW,330,5.0,10.0,66,0.00,,,0.08,VWS V14.01,2013-02-03 18:59:00,
2013-02-03 13:04:00,30.7,21.4,30.17,WNW,303,3.0,14.0,68,0.00,,,0.08,VWS V14.01,2013-02-03 19:04:00,
2013-02-03 13:09:00,31.5,21.5,30.17,WNW,295,8.0,14.0,66,0.00,,,0.08,VWS V14.01,2013-02-03 19:09:00,
2013-02-03 13:14:00,31.0,20.3,30.17,WSW,244,4.0,10.0,64,0.00,,,0.08,VWS V14.01,2013-02-03 19:14:00,
2013-02-03 13:19:00,31.4,22.1,30.17,WNW,294,3.0,10.0,68,0.00,,,0.08,VWS V14.01,2013-02-03 19:19:00,
2013-02-03 13:24:00,32.0,21.2,30.17,NW,304,2.0,10.0,64,0.00,,,0.08,VWS V14.01,2013-02-03 19:24:00,
2013-02-03 13:29:00,32.2,21.8,30.17,NW,323,7.0,10.0,65,0.00,,,0.08,VWS V14.01,2013-02-03 19:29:00,
2013-02-03 13:34:00,31.9,21.1,30.17,NW,304,2.0,13.0,64,0.00,,SCT095,0.08,VWS V14.01,2013-02-03 19:34:00,
2013-02-03 13:39:00,31.4,20.6,30.17,West,265,7.0,13.0,64,0.00,,SCT095,0.08,VWS V14.01,2013-02-03 19:39:00,
2013-02-03 13:44:00,31.4,21.4,30.18,West,276,5.0,9.0,66,0.00,,SCT095,0.08,VWS V14.01,2013-02-03 19:44:00,
2013-02-03 13:49:00,31.5,21.1,30.17,West,275,10.0,12.0,65,0.00,,SCT095,0.08,VWS V14.01,2013-02-03 19:49:00,
2013-02-03 13:54:00,31.5,21.1,30.17,NW,308,4.0,13.0,65,0.00,,,0.08,VWS V14.01,2013-02-03 19:54:00,
2013-02-03 13:59:00,31.6,20.8,30.17,WNW,286,5.0,13.0,64,0.00,,,0.08,VWS V14.01,2013-02-03 19:59:00,
2013-02-03 14:04:00,32.0,21.2,30.18,NW,321,2.0,9.0,64,0.00,,,0.08,VWS V14.01,2013-02-03 20:04:00,
2013-02-03 14:09:00,32.4,21.2,30.18,NW,307,2.0,11.0,63,0.00,,,0.08,VWS V14.01,2013-02-03 20:09:00,
2013-02-03 14:14:00,32.6,21.8,30.18,WNW,288,8.0,14.0,64,0.00,,,0.08,VWS V14.01,2013-02-03 20:14:00,
2013-02-03 14:19:00,32.2,21.0,30.18,West,273,9.0,14.0,63,0.00,,,0.08,VWS V14.01,2013-02-03 20:19:00,
2013-02-03 14:24:00,32.1,21.3,30.17,WNW,298,0.0,9.0,64,0.00,,,0.08,VWS V14.01,2013-02-03 20:24:00,
2013-02-03 14:29:00,32.1,21.3,30.17,WNW,292,3.0,9.0,64,0.00,,,0.08,VWS V14.01,2013-02-03 20:29:00,
2013-02-03 14:34:00,32.1,20.9,30.17,West,271,7.0,14.0,63,0.00,,,0.08,VWS V14.01,2013-02-03 20:34:00,
2013-02-03 14:39:00,32.0,21.2,30.18,WNW,302,8.0,14.0,64,0.00,,,0.08,VWS V14.01,2013-02-03 20:39:00,
2013-02-03 14:44:00,32.8,22.0,30.17,SW,234,2.0,6.0,64,0.00,,,0.08,VWS V14.01,2013-02-03 20:44:00,
2013-02-03 14:49:00,32.6,21.4,30.17,WNW,303,5.0,9.0,63,0.00,,,0.08,VWS V14.01,2013-02-03 20:49:00,
2013-02-03 14:54:00,32.6,21.0,30.18,NW,313,4.0,6.0,62,0.00,,,0.08,VWS V14.01,2013-02-03 20:54:00,
2013-02-03 14:59:00,32.7,20.8,30.18,WNW,290,6.0,9.0,61,0.00,,,0.08,VWS V14.01,2013-02-03 20:59:00,
2013-02-03 15:04:00,32.9,20.9,30.18,WNW,297,3.0,7.0,61,0.00,,,0.08,VWS V14.01,2013-02-03 21:04:00,
2013-02-03 15:09:00,33.0,20.6,30.17,NW,323,6.0,9.0,60,0.00,,,0.08,VWS V14.01,2013-02-03 21:09:00,
2013-02-03 15:14:00,33.1,20.7,30.18,NW,323,8.0,9.0,60,0.00,,,0.08,VWS V14.01,2013-02-03 21:14:00,
2013-02-03 15:19:00,32.8,20.5,30.17,NW,311,7.0,11.0,60,0.00,,,0.08,VWS V14.01,2013-02-03 21:19:00,
2013-02-03 15:24:00,32.9,20.9,30.18,NNW,336,0.0,6.0,61,0.00,,,0.08,VWS V14.01,2013-02-03 21:24:00,
2013-02-03 15:29:00,33.9,21.9,30.18,NW,315,3.0,6.0,61,0.00,,,0.08,VWS V14.01,2013-02-03 21:29:00,
2013-02-03 15:34:00,33.4,21.0,30.18,NW,311,5.0,8.0,60,0.00,,CLR,0.08,VWS V14.01,2013-02-03 21:34:00,
2013-02-03 15:39:00,33.0,20.6,30.18,WNW,299,2.0,8.0,60,0.00,,CLR,0.08,VWS V14.01,2013-02-03 21:39:00,
2013-02-03 15:44:00,32.7,20.0,30.18,WNW,301,4.0,7.0,59,0.00,,CLR,0.08,VWS V14.01,2013-02-03 21:44:00,
2013-02-03 15:49:00,32.6,19.9,30.18,WSW,248,6.0,9.0,59,0.00,,CLR,0.08,VWS V14.01,2013-02-03 21:49:00,
2013-02-03 15:54:00,32.8,20.1,30.18,WNW,292,4.0,8.0,59,0.00,,CLR,0.08,VWS V14.01,2013-02-03 21:54:00,
2013-02-03 15:59:00,33.0,20.6,30.18,NW,309,4.0,8.0,60,0.00,,CLR,0.08,VWS V14.01,2013-02-03 21:59:00,
2013-02-03 16:04:00,32.9,20.2,30.18,West,266,3.0,8.0,59,0.00,,CLR,0.08,VWS V14.01,2013-02-03 22:04:00,
2013-02-03 16:09:00,33.1,20.4,30.18,West,274,5.0,8.0,59,0.00,,CLR,0.08,VWS V14.01,2013-02-03 22:09:00,
2013-02-03 16:14:00,32.7,20.0,30.18,NW,308,6.0,7.0,59,0.00,,CLR,0.08,VWS V14.01,2013-02-03 22:14:00,
2013-02-03 16:19:00,32.7,20.0,30.17,WSW,253,3.0,7.0,59,0.00,,CLR,0.08,VWS V14.01,2013-02-03 22:19:00,
2013-02-03 16:24:00,32.5,19.8,30.17,WNW,293,1.0,5.0,59,0.00,,CLR,0.08,VWS V14.01,2013-02-03 22:24:00,
2013-02-03 16:29:00,32.5,19.8,30.17,NW,305,1.0,5.0,59,0.00,,CLR,0.08,VWS V14.01,2013-02-03 22:29:00,
2013-02-03 16:34:00,32.4,19.7,30.17,West,280,2.0,4.0,59,0.00,,CLR,0.08,VWS V14.01,2013-02-03 22:34:00,
2013-02-03 16:39:00,32.2,19.9,30.16,SW,232,0.0,4.0,60,0.00,,CLR,0.08,VWS V14.01,2013-02-03 22:39:00,
2013-02-03 16:44:00,32.1,19.8,30.16,NW,304,0.0,5.0,60,0.00,,CLR,0.08,VWS V14.01,2013-02-03 22:44:00,
2013-02-03 16:49:00,31.9,19.2,30.16,WNW,293,0.0,6.0,59,0.00,,CLR,0.08,VWS V14.01,2013-02-03 22:49:00,
2013-02-03 16:54:00,31.8,19.5,30.16,WNW,288,0.0,5.0,60,0.00,,CLR,0.08,VWS V14.01,2013-02-03 22:54:00,
2013-02-03 16:59:00,31.6,19.7,30.16,WNW,294,4.0,5.0,61,0.00,,CLR,0.08,VWS V14.01,2013-02-03 22:59:00,
2013-02-03 17:04:00,31.4,19.5,30.16,WNW,286,1.0,3.0,61,0.00,,CLR,0.08,VWS V14.01,2013-02-03 23:04:00,
2013-02-03 17:09:00,31.3,19.4,30.16,WNW,286,0.0,3.0,61,0.00,,CLR,0.08,VWS V14.01,2013-02-03 23:09:00,
2013-02-03 17:14:00,31.2,19.3,30.17,WNW,286,0.0,0.0,61,0.00,,CLR,0.08,VWS V14.01,2013-02-03 23:14:00,
2013-02-03 17:19:00,31.0,19.5,30.17,West,263,0.0,3.0,62,0.00,,CLR,0.08,VWS V14.01,2013-02-03 23:19:00,
2013-02-03 17:24:00,30.9,19.4,30.17,West,263,0.0,1.0,62,0.00,,CLR,0.08,VWS V14.01,2013-02-03 23:24:00,
2013-02-03 17:29:00,30.8,19.3,30.16,West,263,0.0,2.0,62,0.00,,CLR,0.08,VWS V14.01,2013-02-03 23:29:00,
2013-02-03 17:34:00,30.7,19.2,30.16,West,263,1.0,2.0,62,0.00,,CLR,0.08,VWS V14.01,2013-02-03 23:34:00,
2013-02-03 17:39:00,30.5,19.4,30.16,West,263,0.0,2.0,63,0.00,,CLR,0.08,VWS V14.01,2013-02-03 23:39:00,
2013-02-03 17:44:00,30.4,19.3,30.17,West,263,0.0,0.0,63,0.00,,CLR,0.08,VWS V14.01,2013-02-03 23:44:00,
2013-02-03 17:49:00,30.2,19.5,30.16,West,263,0.0,0.0,64,0.00,,CLR,0.08,VWS V14.01,2013-02-03 23:49:00,
2013-02-03 17:54:00,30.1,19.4,30.17,West,263,0.0,0.0,64,0.00,,CLR,0.08,VWS V14.01,2013-02-03 23:54:00,
2013-02-03 17:59:00,29.9,19.2,30.17,West,263,0.0,0.0,64,0.00,,CLR,0.08,VWS V14.01,2013-02-03 23:59:00,
2013-02-03 18:04:00,29.7,19.4,30.17,West,263,0.0,0.0,65,0.00,,CLR,0.08,VWS V14.01,2013-02-04 00:04:00,
2013-02-03 18:09:00,29.5,19.6,30.17,West,263,0.0,1.0,66,0.00,,CLR,0.08,VWS V14.01,2013-02-04 00:09:00,
2013-02-03 18:14:00,29.3,19.4,30.17,West,263,0.0,0.0,66,0.00,,CLR,0.08,VWS V14.01,2013-02-04 00:14:00,
2013-02-03 18:19:00,29.1,19.2,30.17,West,263,0.0,0.0,66,0.00,,CLR,0.08,VWS V14.01,2013-02-04 00:19:00,
2013-02-03 18:24:00,28.8,19.2,30.18,West,263,0.0,0.0,67,0.00,,CLR,0.08,VWS V14.01,2013-02-04 00:24:00,
2013-02-03 18:29:00,28.6,19.4,30.17,West,263,0.0,1.0,68,0.00,,CLR,0.08,VWS V14.01,2013-02-04 00:29:00,
2013-02-03 18:34:00,28.5,19.3,30.17,WSW,257,0.0,1.0,68,0.00,,CLR,0.08,VWS V14.01,2013-02-04 00:34:00,
2013-02-03 18:39:00,28.4,19.5,30.17,WSW,257,0.0,1.0,69,0.00,,CLR,0.08,VWS V14.01,2013-02-04 00:39:00,
2013-02-03 18:44:00,28.3,19.5,30.17,WSW,257,0.0,0.0,69,0.00,,CLR,0.08,VWS V14.01,2013-02-04 00:44:00,
2013-02-03 18:49:00,28.2,19.7,30.17,WSW,252,1.0,2.0,70,0.00,,CLR,0.08,VWS V14.01,2013-02-04 00:49:00,
2013-02-03 18:54:00,28.0,19.5,30.17,WSW,252,0.0,1.0,70,0.00,,CLR,0.08,VWS V14.01,2013-02-04 00:54:00,
2013-02-03 18:59:00,27.9,19.4,30.17,SW,220,2.0,3.0,70,0.00,,CLR,0.08,VWS V14.01,2013-02-04 00:59:00,
2013-02-03 19:04:00,27.8,19.3,30.17,SSW,212,2.0,3.0,70,0.00,,CLR,0.08,VWS V14.01,2013-02-04 01:04:00,
2013-02-03 19:09:00,27.6,19.1,30.16,SSW,212,2.0,3.0,70,0.00,,CLR,0.08,VWS V14.01,2013-02-04 01:09:00,
2013-02-03 19:14:00,27.5,19.0,30.16,SSW,212,0.0,2.0,70,0.00,,CLR,0.08,VWS V14.01,2013-02-04 01:14:00,
2013-02-03 19:20:00,27.5,19.0,30.16,SSW,212,2.0,2.0,70,0.00,,CLR,0.08,VWS V14.01,2013-02-04 01:20:00,
2013-02-03 19:25:00,27.4,18.9,30.16,SSW,212,0.0,3.0,70,0.00,,CLR,0.08,VWS V14.01,2013-02-04 01:25:00,
2013-02-03 19:30:00,27.3,18.8,30.15,SSW,212,0.0,3.0,70,0.00,,CLR,0.08,VWS V14.01,2013-02-04 01:30:00,
2013-02-03 19:35:00,27.1,19.0,30.15,SSW,211,0.0,1.0,71,0.00,,CLR,0.08,VWS V14.01,2013-02-04 01:35:00,
2013-02-03 19:40:00,27.0,19.2,30.15,SSW,212,0.0,1.0,72,0.00,,CLR,0.08,VWS V14.01,2013-02-04 01:40:00,
2013-02-03 19:45:00,26.7,18.9,30.15,SSW,212,0.0,0.0,72,0.00,,CLR,0.08,VWS V14.01,2013-02-04 01:45:00,
2013-02-03 19:50:00,26.7,18.9,30.15,SSW,212,0.0,2.0,72,0.00,,CLR,0.08,VWS V14.01,2013-02-04 01:50:00,
2013-02-03 19:55:00,26.7,18.9,30.15,SSW,212,0.0,0.0,72,0.00,,CLR,0.08,VWS V14.01,2013-02-04 01:55:00,
2013-02-03 20:00:00,26.7,18.6,30.15,SSW,212,0.0,1.0,71,0.00,,CLR,0.08,VWS V14.01,2013-02-04 02:00:00,
2013-02-03 20:05:00,26.8,18.7,30.15,SSW,211,0.0,1.0,71,0.00,,CLR,0.08,VWS V14.01,2013-02-04 02:05:00,
2013-02-03 20:10:00,26.9,18.8,30.15,SSW,212,0.0,1.0,71,0.00,,CLR,0.08,VWS V14.01,2013-02-04 02:10:00,
2013-02-03 20:15:00,26.8,18.7,30.15,SSW,211,0.0,0.0,71,0.00,,CLR,0.08,VWS V14.01,2013-02-04 02:15:00,
2013-02-03 20:20:00,26.7,18.9,30.15,SSW,211,0.0,0.0,72,0.00,,CLR,0.08,VWS V14.01,2013-02-04 02:20:00,
2013-02-03 20:25:00,26.4,18.6,30.14,SSW,212,0.0,0.0,72,0.00,,CLR,0.08,VWS V14.01,2013-02-04 02:25:00,
2013-02-03 20:30:00,26.3,18.5,30.14,SSW,212,0.0,1.0,72,0.00,,CLR,0.08,VWS V14.01,2013-02-04 02:30:00,
2013-02-03 20:35:00,26.1,18.6,30.14,SSW,211,0.0,0.0,73,0.00,,CLR,0.08,VWS V14.01,2013-02-04 02:35:00,
2013-02-03 20:40:00,26.0,18.5,30.14,SSW,212,0.0,0.0,73,0.00,,CLR,0.08,VWS V14.01,2013-02-04 02:40:00,
2013-02-03 20:45:00,25.9,18.8,30.14,SSW,212,0.0,0.0,74,0.00,,CLR,0.08,VWS V14.01,2013-02-04 02:45:00,
2013-02-03 20:50:00,25.7,18.6,30.13,SSW,211,0.0,0.0,74,0.00,,CLR,0.08,VWS V14.01,2013-02-04 02:50:00,
2013-02-03 20:55:00,25.6,18.8,30.13,SSW,212,0.0,0.0,75,0.00,,CLR,0.08,VWS V14.01,2013-02-04 02:55:00,
2013-02-03 21:00:00,25.4,18.6,30.13,SSW,211,0.0,0.0,75,0.00,,CLR,0.08,VWS V14.01,2013-02-04 03:00:00,
2013-02-03 21:05:00,25.2,18.4,30.13,SSW,212,0.0,0.0,75,0.00,,CLR,0.08,VWS V14.01,2013-02-04 03:05:00,
2013-02-03 21:10:00,25.2,18.4,30.14,SSW,212,0.0,0.0,75,0.00,,CLR,0.08,VWS V14.01,2013-02-04 03:10:00,
2013-02-03 21:15:00,25.0,18.5,30.13,SSW,212,0.0,0.0,76,0.00,,CLR,0.08,VWS V14.01,2013-02-04 03:15:00,
2013-02-03 21:20:00,24.8,18.3,30.13,SSW,212,0.0,0.0,76,0.00,,CLR,0.08,VWS V14.01,2013-02-04 03:20:00,
2013-02-03 21:25:00,24.7,18.5,30.12,SSW,211,0.0,0.0,77,0.00,,CLR,0.08,VWS V14.01,2013-02-04 03:25:00,
2013-02-03 21:30:00,24.7,18.5,30.12,SSE,154,0.0,2.0,77,0.00,,CLR,0.08,VWS V14.01,2013-02-04 03:30:00,
2013-02-03 21:35:00,24.7,18.5,30.12,SSE,148,0.0,4.0,77,0.00,,CLR,0.08,VWS V14.01,2013-02-04 03:35:00,
2013-02-03 21:40:00,24.7,18.5,30.12,SSE,148,0.0,4.0,77,0.00,,CLR,0.08,VWS V14.01,2013-02-04 03:40:00,
2013-02-03 21:45:00,24.7,18.5,30.12,SSE,148,0.0,4.0,77,0.00,,CLR,0.08,VWS V14.01,2013-02-04 03:45:00,
2013-02-03 21:50:00,24.8,18.6,30.12,SSE,148,0.0,4.0,77,0.00,,CLR,0.08,VWS V14.01,2013-02-04 03:50:00,
2013-02-03 21:55:00,24.8,18.6,30.12,SSE,148,0.0,1.0,77,0.00,,CLR,0.08,VWS V14.01,2013-02-04 03:55:00,
2013-02-03 22:00:00,24.9,18.7,30.12,SSE,148,0.0,2.0,77,0.00,,CLR,0.08,VWS V14.01,2013-02-04 04:00:00,
2013-02-03 22:05:00,24.9,18.7,30.12,SSE,148,0.0,0.0,77,0.00,,CLR,0.08,VWS V14.01,2013-02-04 04:05:00,
2013-02-03 22:10:00,24.9,18.7,30.11,SSE,148,0.0,0.0,77,0.00,,CLR,0.08,VWS V14.01,2013-02-04 04:10:00,
2013-02-03 22:15:00,24.9,18.7,30.11,SSE,148,0.0,0.0,77,0.00,,CLR,0.08,VWS V14.01,2013-02-04 04:15:00,
2013-02-03 22:20:00,24.9,18.7,30.11,SSE,148,0.0,0.0,77,0.00,,CLR,0.08,VWS V14.01,2013-02-04 04:20:00,
2013-02-03 22:25:00,24.8,18.6,30.11,SSE,148,0.0,0.0,77,0.00,,CLR,0.08,VWS V14.01,2013-02-04 04:25:00,
2013-02-03 22:30:00,24.8,18.6,30.11,SSE,148,0.0,1.0,77,0.00,,CLR,0.08,VWS V14.01,2013-02-04 04:30:00,
2013-02-03 22:35:00,24.8,18.6,30.11,SSE,148,0.0,0.0,77,0.00,,CLR,0.08,VWS V14.01,2013-02-04 04:35:00,
2013-02-03 22:40:00,24.8,18.6,30.11,SSE,148,0.0,0.0,77,0.00,,CLR,0.08,VWS V14.01,2013-02-04 04:40:00,
2013-02-03 22:45:00,24.9,18.7,30.11,SSE,148,0.0,0.0,77,0.00,,CLR,0.08,VWS V14.01,2013-02-04 04:45:00,
2013-02-03 22:50:00,25.0,18.5,30.10,SSE,148,0.0,4.0,76,0.00,,CLR,0.08,VWS V14.01,2013-02-04 04:50:00,
2013-02-03 22:55:00,25.1,18.6,30.10,SSE,148,0.0,1.0,76,0.00,,CLR,0.08,VWS V14.01,2013-02-04 04:55:00,
2013-02-03 23:05:00,25.3,18.8,30.10,SSE,148,0.0,0.0,76,0.00,,CLR,0.08,VWS V14.01,2013-02-04 05:05:00,
2013-02-03 23:10:00,25.4,18.9,30.09,SSE,148,0.0,1.0,76,0.00,,CLR,0.08,VWS V14.01,2013-02-04 05:10:00,
2013-02-03 23:11:00,25.4,18.9,30.09,SSE,148,0.0,1.0,76,0.00,,CLR,0.08,VWS V14.01,2013-02-04 05:11:00,
2013-02-03 23:20:00,25.5,18.7,30.08,SSE,148,0.0,4.0,75,0.00,,CLR,0.08,VWS V14.01,2013-02-04 05:20:00,
2013-02-03 23:25:00,25.7,18.9,30.08,SSE,148,0.0,5.0,75,0.00,,CLR,0.08,VWS V14.01,2013-02-04 05:25:00,
2013-02-03 23:30:00,25.8,18.7,30.08,SSE,147,6.0,6.0,74,0.00,,CLR,0.08,VWS V14.01,2013-02-04 05:30:00,
2013-02-03 23:35:00,25.9,18.8,30.08,SE,142,1.0,5.0,74,0.00,,CLR,0.08,VWS V14.01,2013-02-04 05:35:00,
2013-02-03 23:40:00,25.9,18.8,30.08,SE,142,0.0,5.0,74,0.00,,CLR,0.08,VWS V14.01,2013-02-04 05:40:00,
2013-02-03 23:45:00,25.9,18.8,30.08,SE,142,2.0,2.0,74,0.00,,CLR,0.08,VWS V14.01,2013-02-04 05:45:00,
2013-02-03 23:50:00,26.0,19.2,30.08,SE,142,0.0,5.0,75,0.00,,CLR,0.08,VWS V14.01,2013-02-04 05:50:00,
2013-02-03 23:55:00,26.0,19.2,30.07,SE,142,0.0,5.0,75,0.00,,CLR,0.08,VWS V14.01,2013-02-04 05:55:00,